EST,Max TemperatureF,Mean TemperatureF,Min TemperatureF,Max Dew PointF,MeanDew PointF,Min DewpointF,Max Humidity, Mean Humidity, Min Humidity, Max Sea Level PressureIn, Mean Sea Level PressureIn, Min Sea Level PressureIn, Max VisibilityMiles, Mean VisibilityMiles, Min VisibilityMiles, Max Wind SpeedMPH, Mean Wind SpeedMPH, Max Gust SpeedMPH,PrecipitationIn, CloudCover, Events, WindDirDegrees
2011-12-1,35,30,24,34,27,18,100,87,69,30.28,30.18,30.05,10,7,1,13,3,23,0.00,8,Snow,324
2011-12-2,33,26,21,27,18,14,86,71,59,30.38,30.32,30.27,10,10,10,14,7,22,0.00,4,,223
2011-12-3,39,37,35,37,35,30,100,92,81,30.28,30.11,30.01,10,5,1,17,12,23,0.00,8,Rain-Snow,195
2011-12-4,42,37,32,41,35,30,100,94,87,30.11,29.88,29.74,10,6,0,15,6,20,0.00,8,Rain-Snow,316
2011-12-5,28,24,21,27,23,16,93,87,74,30.38,30.31,30.23,10,10,5,12,5,18,0.00,8,,330
2011-12-6,24,22,19,18,17,14,86,79,68,30.35,30.24,30.05,10,10,10,10,5,,0.00,8,,315
2011-12-7,24,22,19,21,18,12,93,79,59,30.00,29.85,29.79,10,10,2,16,11,23,0.00,5,Snow,233
2011-12-8,26,22,17,19,11,1,86,65,36,30.03,29.91,29.81,10,10,4,22,13,30,0.00,2,Snow,240
2011-12-9,21,16,10,7,4,1,73,60,46,30.18,30.08,30.02,10,10,10,16,10,22,0.00,1,,239
2011-12-10,26,17,8,18,5,-2,79,64,36,30.28,30.23,30.19,10,10,3,16,11,17,0.00,5,Snow,225
2011-12-11,41,32,23,36,28,18,93,80,65,30.19,30.11,30.06,10,9,5,26,15,37,0.00,2,,205
2011-12-12,37,35,33,36,33,28,100,90,75,30.29,30.24,30.16,10,5,1,18,10,24,0.00,6,Rain-Snow,216
2011-12-13,37,35,33,37,34,32,100,95,93,30.37,30.33,30.30,5,2,0,5,2,,0.00,8,Fog-Rain-Snow,278
2011-12-14,37,35,33,36,34,32,100,96,93,30.29,30.00,29.66,4,1,0,10,4,,0.00,8,Fog-Rain-Snow,118
2011-12-15,39,32,26,37,33,25,100,94,86,29.86,29.55,29.43,10,5,0,25,8,39,0.00,8,Fog-Rain-Snow,253
2011-12-16,28,22,17,27,19,16,93,88,80,30.30,30.21,29.87,10,8,2,20,11,31,0.00,8,Snow,311
2011-12-17,26,16,6,25,15,3,93,85,64,30.30,30.18,30.00,10,8,0,16,4,23,0.00,6,Snow,171
2011-12-18,37,29,21,36,25,21,100,84,74,30.05,29.91,29.60,10,10,10,23,11,30,0.00,8,,207
2011-12-19,37,32,26,34,27,19,93,83,74,30.15,29.82,29.57,10,10,10,16,12,25,0.00,7,,296
2011-12-20,30,27,24,25,21,18,86,78,69,30.22,30.01,29.76,10,10,10,16,7,24,0.00,6,,212
2011-12-21,35,30,24,28,24,19,93,82,52,29.76,29.68,29.60,10,10,5,17,11,23,0.00,2,,227
2011-12-22,33,27,21,30,22,16,93,84,74,30.21,30.06,29.82,10,9,2,15,7,23,0.00,8,Snow,313
2011-12-23,23,19,15,19,17,14,93,90,86,30.25,30.20,30.16,10,5,0,12,4,,0.00,8,Snow,100
2011-12-24,33,27,21,28,24,19,100,89,80,30.20,30.10,29.90,10,9,1,10,7,17,0.00,8,Snow,150
2011-12-25,33,28,24,32,27,21,93,89,80,30.12,29.87,29.75,10,7,1,20,8,25,0.00,7,Snow,255
2011-12-26,39,34,28,32,28,25,86,79,65,30.13,29.95,29.66,10,10,10,33,13,45,0.00,4,,204
2011-12-27,39,27,14,32,25,10,93,82,70,29.81,29.61,29.53,10,8,2,21,14,34,0.00,8,Snow,269
2011-12-28,14,11,8,7,4,3,85,76,62,30.03,29.97,29.89,10,10,5,18,7,24,0.00,6,Snow,19
2011-12-29,28,20,12,25,19,9,93,87,80,29.86,29.68,29.57,10,7,2,17,10,23,0.00,8,Snow,99
2011-12-30,28,26,24,27,25,21,100,94,86,29.79,29.73,29.66,10,5,0,8,6,,0.00,8,Fog-Snow,60
2011-12-31,33,27,21,30,27,19,100,90,75,29.91,29.86,29.76,10,7,0,10,3,,0.00,6,Fog,154